Flag for Russia Weather past 2 weeks in Orenburg, Russia

Now
45 °F

Clear.


Feels Like: 41 °F
Forecast: 45 / 75 °F
Wind: 6 mph from West

Location: Orenburg / Tsentralny

Current Time: Jul 8, 2015 at 3:14:12 AM

Latest Report: Jul 8, 2015 at 2:30 AM


Visibility: N/A

Pressure: 29.92 "Hg

Humidity: 76%

Dew point: 37 °F

Location of OrenburgLocation

Historic Weather in Orenburg — Graph

°F

Orenburg temperature yesterday

Maximum temperature yesterday: 68 °F (at 4:30 PM)
Minimum temperature yesterday: 48 °F (at 11:00 PM)
Average temperature yesterday: 60 °F

Past Weeks' High & Low Weather Summary

 TemperatureHumidityPressure
High102 °F (Jun 28, 3:30 PM)100% (Jul 2, 2:30 AM)29.98 "Hg (Jul 2, 2:30 AM)
Low45 °F (Jul 8, 1:00 AM)15% (Jun 23, 4:00 PM)29.62 "Hg (Jun 27, 3:00 PM)
Average75 °F53%29.79 "Hg
* Reported Jun 23 2:00 AM — Jul 8 2:00 AM, Orenburg, Weather by CustomWeather, © 2015

Note: Actual official high and low records may vary slightly from our data, if they occured in-between our weather recording intervals... More about our weather records

Advertising

Orenburg weather history for previous 24 hours

 ConditionsComfort  
Time TempWeatherWind HumidityBarometerVisibility
2:00 AM
Wed, Jul 8
45 °FClear.6 mph76%29.92 "HgN/A
1:30 AM45 °FClear.3 mph76%29.89 "HgN/A
1:00 AM45 °FPassing clouds.6 mph76%29.89 "HgN/A
12:30 AM46 °FPassing clouds.3 mph71%29.89 "HgN/A
12:00 AM46 °FPassing clouds.1 mph76%29.89 "HgN/A
11:30 PM
Tue, Jul 7
48 °FPassing clouds.3 mph71%29.89 "HgN/A
11:00 PM48 °FPassing clouds.1 mph76%29.89 "HgN/A
10:30 PM50 °FPassing clouds.8 mph67%29.89 "HgN/A
10:00 PM52 °FScattered clouds.8 mph58%29.89 "HgN/A
9:30 PM57 °FScattered clouds.8 mph44%29.89 "HgN/A
9:00 PM61 °FScattered clouds.8 mph34%29.86 "HgN/A
8:30 PM63 °FScattered clouds.10 mph32%29.86 "HgN/A
8:00 PM64 °FScattered clouds.15 mph28%29.86 "HgN/A
7:30 PM64 °FScattered clouds.22 mph26%29.86 "HgN/A
7:00 PM66 °FScattered clouds.17 mph26%29.83 "HgN/A
6:30 PM66 °FPartly sunny.17 mph24%29.83 "HgN/A
6:00 PM66 °FPartly sunny.15 mph24%29.83 "HgN/A
5:30 PM66 °FPartly sunny.15 mph26%29.83 "HgN/A
5:00 PM66 °FPartly sunny.15 mph26%29.83 "HgN/A
4:30 PM68 °FPartly sunny.20 mph24%29.83 "HgN/A
4:00 PM66 °FPartly sunny.13 mph26%29.80 "HgN/A
3:30 PM66 °FPartly sunny.20 mph24%29.80 "HgN/A
3:00 PM66 °FPartly sunny.17 mph26%29.80 "HgN/A
2:30 PM66 °FScattered clouds.20 mph24%29.80 "HgN/A
2:00 PM66 °FScattered clouds.20 mph26%29.80 "HgN/A
1:30 PM64 °FScattered clouds.17 mph26%29.80 "HgN/A
1:00 PM64 °FScattered clouds.17 mph30%29.80 "HgN/A
12:30 PM63 °FScattered clouds.15 mph34%29.80 "HgN/A
12:00 PM61 °FScattered clouds.17 mph36%29.80 "HgN/A
11:30 AM61 °FPassing clouds.17 mph36%29.80 "HgN/A
11:00 AM59 °FPassing clouds.15 mph39%29.80 "HgN/A
10:30 AM59 °FPassing clouds.17 mph42%29.80 "HgN/A
10:00 AM57 °FPassing clouds.15 mph48%29.80 "HgN/A
9:30 AM55 °FPassing clouds.13 mph51%29.80 "HgN/A
9:00 AM55 °FPassing clouds.15 mph55%29.77 "HgN/A
8:30 AM54 °FPassing clouds.15 mph58%29.77 "HgN/A
7:30 AM52 °FPassing clouds.13 mph67%29.77 "HgN/A
7:00 AM52 °FPassing clouds.15 mph67%29.77 "HgN/A
6:30 AM52 °FPassing clouds.15 mph67%29.74 "HgN/A
6:00 AM54 °FPassing clouds.13 mph67%29.74 "HgN/A
5:30 AM54 °FPassing clouds.13 mph67%29.71 "HgN/A
5:00 AM55 °FPassing clouds.10 mph67%29.71 "HgN/A
4:30 AM55 °FPassing clouds.10 mph67%29.71 "HgN/A
4:00 AM57 °FPassing clouds.13 mph63%29.71 "HgN/A
3:30 AM59 °FPassing clouds.13 mph63%29.68 "HgN/A
Weather by CustomWeather, © 2015

See weather overviewHow to use our weather pages